Wind_Speed
12 12 12 12 11 10 9 9 8 8 8 9 10 10 10 10 11 11 11 10 11 11 12 13 13 13 13 14 16 18 20 20 19 19 21 23 23 22 22 22 22 22 21 20 21 21 19 18 20 22 23 23 25 26 25 26 27 28 30 33 40 41 38 37 35 33 33 33 31 28 27 32 33 31 32 32 34 34 34 36 36 38 37 36 33 31 34 33
12 13 12 12 12 11 10 9 8 9 9 10 11 11 11 12 12 13 13 13 14 14 15 16 16 16 16 17 17 20 22 21 20 20 21 22 22 22 23 23 24 24 22 19 19 20 18 17 19 21 22 23 25 26 25 26 28 30 32 36 41 40 38 37 35 34 33 33 33 30 28 31 32 31 31 32 34 33 34 36 36 39 38 36 34 31 33 35
13 13 13 13 12 12 11 10 9 9 10 11 12 12 13 13 14 14 15 15 16 16 17 19 19 18 19 19 20 22 23 23 22 20 20 22 22 24 25 25 26 24 21 18 17 18 17 17 18 20 22 23 24 25 26 27 28 29 32 38 41 39 37 37 35 34 33 32 33 32 29 32 33 31 32 33 35 36 37 37 34 37 37 35 33 31 33 36
14 14 14 14 13 12 12 11 10 10 11 12 13 14 14 15 16 16 17 17 18 19 19 21 21 20 21 21 22 24 25 25 21 19 21 23 24 26 26 26 24 20 16 15 16 16 16 16 17 18 20 21 23 25 27 27 27 28 33 38 38 36 37 37 35 34 33 32 33 33 31 34 33 31 34 35 38 42 40 37 33 33 33 33 32 32 35 37
15 15 15 15 14 14 13 12 11 11 12 12 14 15 16 17 18 19 19 20 21 21 21 22 23 22 23 23 24 24 25 24 19 19 24 25 26 27 27 25 20 13 11 13 15 15 14 14 15 16 18 19 20 24 26 26 26 30 34 35 34 34 37 36 33 32 32 32 33 34 33 34 33 33 36 37 42 46 41 36 34 32 31 30 32 34 38 39
15 16 16 16 15 15 14 13 12 13 13 13 14 15 16 17 18 19 20 22 23 23 23 24 24 24 24 25 24 24 24 21 17 22 25 25 27 27 26 23 15 8 9 13 13 13 12 11 12 13 15 16 18 21 22 22 24 30 33 32 32 33 35 34 31 31 30 31 32 32 33 33 34 38 38 39 45 45 40 37 35 33 31 30 32 36 40 40
16 16 17 17 16 16 15 14 14 14 14 14 15 15 15 16 17 17 18 20 22 23 24 24 25 25 25 25 24 23 22 17 16 23 24 25 27 26 25 21 11 7 9 11 11 12 12 12 11 12 14 15 17 18 19 20 23 29 31 30 30 30 33 32 30 30 29 31 31 31 33 34 36 39 39 41 45 41 39 38 36 36 35 34 35 37 38 37
16 17 17 18 17 17 16 16 16 15 15 16 16 16 16 15 16 16 16 17 18 20 21 23 24 23 24 24 23 23 19 16 17 22 23 25 26 25 24 18 9 7 10 11 10 11 11 12 12 12 15 16 17 18 18 21 23 26 28 28 28 28 31 30 30 30 30 31 30 31 35 36 35 38 42 44 42 38 37 37 37 39 40 39 39 37 36 33
16 17 18 18 18 17 17 17 17 17 17 17 17 17 17 16 16 16 15 15 16 17 18 20 21 21 22 22 23 21 16 16 19 20 22 24 25 25 22 16 10 8 10 11 10 11 10 10 11 13 15 16 17 18 19 22 23 25 25 27 28 29 30 29 30 30 30 31 30 33 37 36 32 36 45 45 38 34 32 35 38 41 42 42 41 39 36 33
16 17 17 18 18 18 18 18 18 18 18 18 18 18 18 17 17 17 17 16 17 17 17 19 18 19 21 21 24 20 15 18 20 19 21 23 24 24 20 14 11 9 11 11 11 12 11 10 10 12 14 17 19 19 20 23 24 25 25 28 29 30 29 29 30 29 29 31 31 35 38 35 31 36 48 44 34 30 32 36 37 40 43 43 43 42 39 37
17 17 17 17 18 18 18 18 19 19 18 18 19 19 19 18 18 18 19 18 18 18 19 19 19 20 21 23 23 18 16 20 20 19 20 21 23 22 18 13 11 10 12 12 12 12 12 12 11 12 14 18 20 21 22 24 25 27 27 29 29 29 29 29 29 26 27 31 30 32 38 38 34 39 48 40 30 31 36 36 34 37 41 42 43 42 41 39
17 17 17 17 18 18 18 18 19 19 19 19 19 19 19 19 19 20 20 20 20 20 21 21 21 20 22 25 20 15 18 21 21 21 19 19 21 20 15 12 11 11 12 13 14 13 12 12 12 14 16 18 20 19 20 21 24 27 28 28 28 29 29 28 28 26 28 31 26 27 38 42 38 40 41 32 29 34 37 34 32 34 37 39 40 39 38 36
17 17 17 17 17 18 18 18 18 19 19 19 19 20 20 20 20 21 22 22 22 22 23 23 23 23 25 25 18 15 20 22 22 21 17 16 19 17 14 11 11 11 12 13 14 13 13 13 14 16 17 18 20 18 19 20 22 23 23 26 28 29 30 26 24 24 25 25 19 22 36 42 36 33 30 26 28 31 32 32 31 33 35 35 35 35 34 32
17 17 17 17 17 18 18 18 18 19 19 19 19 20 20 21 21 22 23 23 23 24 23 24 25 25 27 24 19 20 22 22 22 19 14 15 18 16 13 11 10 11 12 13 14 14 15 15 16 16 16 16 16 15 16 17 18 17 18 24 26 28 31 25 20 21 21 19 18 22 34 40 35 29 24 24 25 24 27 29 30 32 33 32 31 31 31 30
18 18 18 18 18 18 18 18 18 18 19 19 19 20 21 22 23 23 24 25 25 25 24 25 26 27 29 24 20 21 20 19 20 16 13 15 17 15 12 11 10 11 12 13 14 16 16 17 17 16 16 15 14 14 13 12 14 15 20 25 24 26 30 26 20 21 21 19 19 23 30 36 35 29 24 24 22 20 24 27 28 31 30 30 29 28 29 30
19 19 19 19 18 18 18 18 18 18 18 18 18 19 21 22 23 24 25 26 27 26 24 26 26 27 29 24 19 19 18 19 18 15 15 16 16 14 12 11 11 11 12 13 14 16 17 18 18 17 17 17 17 17 16 17 18 17 21 25 23 25 29 26 21 18 20 20 22 25 30 35 35 30 26 25 24 25 27 27 28 27 26 27 27 27 29 31
20 19 20 19 19 19 20 20 19 19 19 18 18 19 20 21 22 24 25 26 27 27 26 27 26 28 29 24 21 20 18 19 16 15 17 17 16 14 12 11 10 11 11 12 14 15 17 18 19 19 19 19 19 19 18 19 19 15 18 22 21 22 24 26 24 18 19 23 25 29 33 38 38 33 30 29 28 29 30 29 28 26 24 26 28 29 30 33
20 20 20 20 20 20 21 21 20 20 20 19 20 20 21 21 22 23 24 26 27 27 28 26 24 27 26 18 15 15 16 18 18 18 19 19 16 14 13 11 10 11 10 10 11 13 15 17 18 19 19 19 19 20 19 15 14 14 18 20 21 23 24 27 27 22 22 27 30 32 34 38 39 36 35 31 28 31 31 30 30 27 25 27 30 32 34 37
22 21 21 21 20 20 21 21 21 21 20 20 21 22 22 22 22 24 25 26 26 25 26 24 22 24 23 19 19 20 22 23 23 21 20 19 16 14 14 12 11 11 9 9 9 11 14 16 17 19 19 18 18 20 20 17 18 20 23 24 25 28 29 28 25 23 26 32 32 30 31 36 39 37 35 30 28 30 30 29 30 27 26 28 31 35 37 38
23 23 23 22 22 21 21 21 21 21 21 21 22 22 23 23 23 25 25 26 25 24 26 26 24 25 25 27 27 27 26 25 25 23 20 19 17 15 15 14 12 11 9 9 11 12 13 16 19 19 17 16 16 18 18 19 21 22 24 25 27 29 30 26 23 23 24 30 31 27 30 35 38 37 33 29 28 29 29 27 27 27 27 30 31 34 35 32
26 25 24 23 23 22 22 22 21 21 21 21 23 23 23 23 24 25 26 26 25 24 26 27 28 27 25 27 27 26 26 25 25 24 21 20 18 17 16 15 15 12 9 11 14 14 15 18 16 12 11 12 14 15 16 17 18 20 22 24 25 27 28 25 23 21 20 25 30 29 33 37 36 35 32 29 27 26 24 23 25 25 27 29 30 31 32 29
27 26 26 25 24 23 23 23 22 22 21 21 22 23 24 24 24 25 27 29 27 25 26 27 29 29 25 24 26 26 26 26 25 24 21 20 19 19 18 17 16 13 12 14 14 14 16 17 11 7 8 9 11 13 14 16 18 19 20 23 26 24 25 27 23 20 21 27 32 32 36 38 34 32 29 25 24 22 19 20 23 24 27 28 27 27 29 28
29 28 27 27 26 24 24 23 23 22 21 21 21 22 24 24 24 25 27 31 31 26 25 27 29 29 25 25 26 27 28 27 25 24 23 21 20 20 20 20 18 16 16 17 15 16 17 13 7 6 8 9 11 13 14 16 17 18 19 22 26 23 23 26 24 22 23 27 31 31 36 39 33 29 25 17 17 17 15 18 21 22 26 25 23 23 24 23
31 29 28 28 27 26 25 24 24 23 21 20 20 22 23 23 23 24 26 31 34 31 26 25 28 29 26 25 27 28 29 28 26 25 23 22 21 21 22 21 21 21 19 17 16 19 19 14 11 11 10 11 13 14 15 17 18 19 19 21 23 21 17 20 23 25 28 27 25 27 33 36 30 23 20 14 13 15 11 12 16 18 22 23 21 21 20 19
33 31 30 29 29 27 26 26 24 22 21 20 21 22 21 22 22 23 26 28 32 33 27 24 24 26 25 25 26 27 28 28 26 25 24 23 22 22 22 21 23 25 22 19 20 23 20 15 16 16 14 15 15 15 16 17 20 20 19 18 18 17 15 17 20 23 27 25 23 25 22 25 33 28 19 14 12 15 10 9 13 15 20 23 23 21 19 19
35 34 33 32 30 29 28 27 25 23 21 20 21 21 20 21 20 22 23 22 26 31 27 22 19 19 20 21 22 23 25 25 23 22 23 23 23 22 22 23 25 25 23 22 22 26 23 16 17 17 15 15 16 18 17 16 20 21 19 15 14 15 16 19 20 20 21 21 27 29 13 16 39 35 17 15 12 14 12 9 12 15 19 22 22 22 21 20
37 36 35 34 32 31 30 28 26 25 23 20 20 19 19 19 19 20 18 13 16 22 21 17 13 13 14 14 16 18 17 16 16 19 21 21 23 23 23 24 24 23 23 22 21 22 20 16 15 15 16 17 18 18 16 15 18 20 18 15 16 19 20 23 23 21 22 26 32 30 11 12 29 30 21 23 19 13 12 9 12 16 19 21 22 21 21 21
39 37 37 36 34 33 31 29 28 27 24 22 20 19 18 18 18 16 10 3 5 9 12 12 10 11 13 12 13 16 16 12 10 14 18 20 22 23 23 24 24 23 23 24 25 22 17 16 14 12 14 17 18 17 16 17 18 19 19 19 21 22 22 23 23 22 22 23 26 23 10 6 18 31 29 24 16 10 10 11 12 16 19 20 21 21 21 21
40 39 38 37 36 34 32 31 29 28 27 24 22 20 19 17 17 13 5 2 5 8 10 11 11 12 13 14 14 15 17 15 12 11 14 18 22 23 24 23 23 24 25 27 30 27 22 20 19 17 18 17 17 17 18 19 19 20 21 21 21 21 23 23 22 24 19 12 18 23 14 4 16 36 30 12 4 4 6 9 9 11 13 16 18 19 20 20
41 40 38 38 37 35 33 31 29 29 28 26 23 21 19 18 17 11 6 6 8 10 13 13 13 14 13 15 16 15 16 16 16 15 14 17 21 23 24 23 23 25 27 29 32 31 29 28 26 25 23 20 19 19 19 20 19 21 20 20 22 22 23 22 21 19 10 6 15 19 14 5 9 28 21 3 3 1 5 9 7 7 7 9 12 13 14 14
41 41 39 38 36 36 35 31 30 30 28 27 25 23 21 20 18 11 6 12 13 12 16 17 16 16 14 15 15 16 17 17 18 17 16 16 19 23 25 24 23 23 26 31 34 33 31 32 32 31 28 26 25 24 24 24 23 22 21 21 21 17 14 13 11 7 3 5 8 8 9 7 10 19 18 7 7 12 14 12 8 7 8 8 8 8 10 10
40 41 41 39 37 37 36 33 31 30 28 28 25 24 23 18 19 18 11 9 10 10 15 19 18 18 16 15 15 16 17 17 18 18 17 17 18 22 24 24 23 19 18 24 29 30 32 34 33 32 31 30 30 29 29 29 28 28 26 21 13 7 7 5 2 2 4 6 7 7 6 8 19 27 24 16 14 16 21 19 14 11 9 9 9 9 10 12
39 40 41 42 40 37 36 35 32 29 28 28 26 27 25 14 16 28 24 15 9 6 7 10 12 15 16 17 17 16 17 17 18 18 18 19 20 21 22 24 25 22 16 16 16 16 21 25 26 28 31 30 31 34 32 29 26 24 24 19 9 1 2 4 3 2 5 6 8 9 6 9 21 23 14 9 8 8 12 17 19 16 13 12 11 11 12 13
37 38 40 41 39 36 37 35 32 30 28 28 28 27 26 19 17 22 26 26 23 15 9 7 7 10 13 17 19 18 18 18 18 19 20 21 22 23 25 25 27 28 25 21 16 12 11 13 14 15 18 18 20 24 27 28 25 21 18 15 13 11 6 3 3 2 3 7 10 7 3 6 11 10 8 11 13 14 14 14 17 17 15 16 16 13 14 14
36 37 39 41 39 37 37 36 33 32 29 30 31 30 34 35 27 20 22 27 29 26 23 19 15 12 12 15 17 17 18 18 18 20 21 23 25 24 24 25 26 29 29 23 17 14 14 16 17 15 16 14 13 13 15 20 23 22 20 17 17 19 14 7 6 7 6 8 9 8 10 16 22 26 26 24 23 23 18 16 20 19 15 16 19 17 16 17
37 38 39 42 41 37 36 37 35 34 34 33 33 38 48 49 37 28 24 23 26 30 31 28 24 20 18 20 21 21 20 19 20 20 21 24 26 26 26 24 24 27 29 26 19 12 11 12 12 12 14 14 13 13 13 13 14 15 17 19 19 19 16 10 8 10 7 5 8 9 14 24 27 27 21 11 7 8 7 8 14 20 20 18 18 19 18 20
40 40 41 42 40 36 37 38 36 36 36 35 38 48 56 53 43 37 29 22 23 28 30 29 26 22 21 22 23 25 24 23 22 21 22 23 21 22 24 25 26 28 28 27 24 19 15 15 15 14 13 12 11 12 13 16 16 14 14 15 14 13 13 10 5 5 2 2 7 7 13 21 17 13 13 7 5 8 8 8 8 12 19 20 19 19 20 21
41 42 43 44 40 36 37 37 36 38 38 38 46 55 55 50 46 42 36 30 25 25 28 29 26 22 22 21 21 23 24 25 25 24 24 23 19 16 17 18 20 23 25 26 26 24 20 18 20 21 21 20 19 16 15 18 19 19 18 15 12 8 8 9 5 2 1 2 6 6 11 21 20 19 20 16 12 14 14 13 11 9 14 18 19 20 19 20
39 40 43 46 43 40 41 39 37 38 41 44 52 56 55 53 49 43 40 36 31 28 30 32 28 25 26 24 22 22 24 26 27 27 24 21 18 16 15 14 13 13 17 22 27 28 23 16 12 16 19 18 19 20 21 22 23 23 21 18 16 11 8 10 9 4 2 2 4 5 6 17 25 23 22 20 16 16 15 15 15 14 14 14 15 17 18 17
38 40 44 45 42 41 44 44 40 40 46 53 58 57 57 56 51 45 42 39 36 34 35 36 32 31 31 28 24 24 24 26 28 29 26 22 18 16 14 15 15 13 12 16 22 27 28 22 16 17 18 15 17 19 19 20 21 23 24 23 22 18 13 10 11 12 7 3 2 2 4 23 37 30 25 19 12 10 11 11 13 16 14 12 12 14 14 13
42 40 45 46 41 38 43 47 48 48 51 56 60 60 59 56 53 48 44 41 40 38 38 38 36 35 35 32 30 28 26 29 30 28 28 27 24 20 17 16 15 14 13 15 18 21 26 28 24 23 23 22 22 20 17 17 17 19 23 23 24 24 19 8 6 14 14 7 5 2 5 30 39 26 16 6 3 5 8 7 5 11 11 9 9 10 10 10
48 46 46 46 40 37 42 48 50 52 55 59 63 62 60 58 55 50 45 42 42 41 41 42 40 39 37 36 33 30 29 32 33 31 30 30 29 25 21 18 16 14 15 15 14 15 20 26 26 27 30 29 27 24 21 21 20 20 21 21 22 25 26 18 7 9 13 12 10 3 3 25 27 10 4 6 9 7 11 12 7 4 5 5 5 6 4 5
55 53 50 46 41 38 42 47 48 52 58 62 64 62 59 58 56 51 47 43 42 42 42 44 44 43 42 40 36 34 32 33 34 35 34 33 33 28 25 24 22 18 17 17 14 14 18 23 22 24 28 28 27 28 28 28 26 24 25 26 25 26 31 29 20 14 8 12 12 4 2 27 32 17 11 8 6 8 15 17 12 5 4 3 2 4 4 5
56 56 55 50 44 39 43 48 49 53 58 59 60 60 59 58 57 55 51 47 44 43 44 45 45 44 43 42 40 39 37 33 33 36 35 34 34 31 28 29 27 25 23 20 18 19 20 22 20 13 11 14 15 17 22 30 32 32 33 33 31 30 30 29 29 24 11 13 19 7 7 37 44 32 29 26 23 25 24 22 19 16 17 14 10 9 8 10
57 56 55 52 46 41 43 46 48 51 54 56 59 60 59 59 60 59 56 52 47 44 43 44 45 45 43 42 43 43 42 39 35 33 32 33 33 30 29 29 28 28 28 25 25 25 25 27 25 16 8 7 8 9 15 22 25 29 32 32 33 34 33 32 30 23 13 15 24 19 22 49 53 41 40 41 38 37 33 32 34 32 29 27 23 19 15 15
56 56 53 48 44 43 44 44 46 49 51 53 58 60 60 61 61 59 56 54 52 48 45 45 45 44 43 43 45 45 45 44 41 37 37 35 32 29 28 28 28 27 27 28 29 29 29 32 31 30 26 24 25 26 28 27 24 25 27 28 30 31 33 36 31 26 23 22 29 36 44 55 58 51 46 44 42 41 38 36 35 32 29 28 27 27 25 23
54 57 57 52 44 42 46 47 46 49 51 52 55 57 59 61 59 56 55 56 55 50 46 47 46 46 46 47 45 45 46 45 44 45 45 42 37 31 28 28 29 27 26 27 29 30 33 35 35 36 39 39 39 38 38 38 38 37 35 34 35 32 32 37 36 32 33 26 27 42 49 51 59 58 48 43 42 42 42 39 36 35 32 29 28 30 31 31
54 57 58 58 51 47 49 52 52 52 52 52 53 53 55 57 58 57 56 56 54 50 46 47 50 52 52 50 45 43 44 43 45 49 49 45 40 34 29 28 30 31 27 25 28 29 32 38 39 39 41 42 40 38 38 41 43 44 43 40 39 36 35 40 41 39 38 35 37 47 47 50 63 63 54 51 50 49 47 44 41 39 34 32 32 33 33 32
50 55 55 56 57 55 52 51 51 53 52 51 51 52 53 56 57 57 55 54 53 52 51 51 55 56 54 51 47 43 44 45 46 48 47 45 41 36 32 31 32 34 32 29 30 30 32 39 39 37 40 41 40 39 39 41 43 47 49 47 45 44 42 43 44 41 42 48 53 52 50 58 64 61 57 55 54 53 50 45 43 40 37 37 38 37 34 32
47 53 53 51 53 57 56 51 48 50 51 52 54 54 54 57 57 56 55 55 54 54 53 54 57 56 51 48 48 49 53 54 50 47 43 40 39 36 35 35 34 34 36 35 34 31 34 38 37 33 34 36 37 37 37 39 43 48 51 50 48 48 46 47 48 45 46 53 55 51 55 65 65 57 55 55 53 53 50 46 43 38 36 39 39 35 32 29
45 49 52 51 48 50 54 54 51 49 48 52 55 54 55 59 58 55 54 54 54 54 53 53 54 52 49 48 50 56 60 56 51 49 45 41 39 36 35 35 33 34 37 36 34 33 34 38 38 31 27 32 34 32 34 37 40 49 58 57 52 51 49 49 50 50 51 53 52 50 58 65 59 50 51 53 52 51 49 44 39 33 33 36 35 31 29 27
45 46 47 49 47 45 48 51 52 51 50 52 53 53 52 53 54 53 52 53 54 54 53 52 48 45 46 50 55 59 57 52 49 47 45 44 43 41 39 36 35 35 36 35 33 32 33 36 37 30 25 28 29 26 30 28 26 39 51 47 45 51 55 55 58 57 56 55 54 57 62 63 57 51 52 52 48 45 42 37 33 34 34 33 34 33 32 31
Wind_Direction
262 262 260 260 260 259 259 256 248 237 228 223 222 221 226 234 242 244 245 248 257 265 271 274 277 282 288 294 301 304 302 304 306 310 311 310 309 309 311 311 309 306 298 287 281 279 276 270 264 260 258 253 249 247 244 242 241 240 240 240 244 247 249 252 255 258 262 266 269 272 268 267 268 265 265 264 262 263 258 253 253 255 256 256 255 249 247 252
262 261 261 259 258 259 258 256 252 245 237 230 228 227 230 236 241 245 249 256 263 269 273 278 281 284 289 294 300 302 301 303 306 311 308 305 307 308 312 313 310 306 296 284 281 281 280 275 267 259 254 252 249 247 245 243 241 240 241 244 246 249 252 256 260 264 267 270 273 273 268 266 267 265 265 263 260 259 257 253 251 254 255 256 255 251 248 250
261 261 260 259 258 257 257 258 255 251 246 240 236 235 237 240 243 247 252 258 264 270 275 279 282 285 288 293 298 300 300 302 308 313 306 303 308 311 313 312 310 304 290 278 276 277 279 276 271 263 254 249 248 246 244 245 245 244 244 247 250 253 256 259 263 266 269 272 274 272 268 263 262 262 262 262 260 255 253 253 253 253 254 256 256 254 253 251
262 261 260 259 257 256 256 257 258 257 252 247 244 242 244 246 249 252 255 260 265 270 276 280 283 286 287 292 297 299 300 303 313 315 305 308 313 315 315 313 310 301 281 272 274 274 275 272 270 265 256 250 247 245 243 244 246 247 246 249 253 257 259 261 263 267 269 271 272 272 269 263 261 261 258 259 259 254 250 252 255 257 257 257 256 253 252 252
262 260 259 259 257 256 255 255 258 259 256 251 248 247 249 252 255 258 261 264 267 270 274 279 283 285 287 291 294 297 298 304 317 312 307 315 317 317 318 316 312 295 268 264 267 267 266 267 266 260 254 252 249 248 247 247 249 251 251 253 257 259 262 263 265 268 269 271 272 273 272 268 267 262 256 256 257 255 253 252 254 258 258 256 252 249 248 249
262 261 260 260 259 258 256 255 257 258 260 257 253 252 252 255 259 263 266 268 268 270 272 277 280 283 286 288 292 294 294 305 317 307 309 318 316 318 321 318 309 285 260 260 262 261 260 262 263 260 258 258 255 254 254 252 252 254 256 258 259 262 266 268 270 270 270 271 270 272 273 271 269 263 258 256 254 255 256 254 253 256 257 255 250 247 246 246
262 263 262 261 261 260 258 257 256 256 259 259 258 257 256 259 264 268 272 272 271 270 271 275 277 281 284 286 290 290 293 308 310 302 311 317 313 318 322 317 302 268 256 260 265 264 260 258 261 263 264 264 262 261 260 254 251 255 259 261 263 264 267 270 272 270 269 267 267 270 270 266 265 266 265 259 256 257 257 255 255 255 256 255 252 249 250 248
260 261 262 263 262 261 260 258 257 256 257 259 261 260 261 263 267 273 277 277 276 273 272 273 276 279 282 285 287 288 299 309 300 302 313 313 312 319 321 314 292 259 253 256 262 262 261 262 262 259 262 266 267 267 263 257 254 257 261 264 267 266 266 267 268 267 266 265 266 267 265 263 264 268 269 263 261 261 259 257 255 254 254 254 254 254 254 254
258 260 261 262 262 262 260 258 257 255 256 259 261 262 263 264 267 273 276 279 279 277 276 275 278 280 281 285 284 290 309 305 298 307 313 312 313 318 319 309 281 252 250 254 253 252 255 262 262 259 263 266 266 266 264 260 259 261 263 265 266 266 267 268 266 266 265 266 267 266 266 266 267 271 269 265 266 267 262 257 252 252 252 253 255 256 256 256
258 259 261 262 263 263 261 260 258 257 256 258 260 262 264 265 267 270 272 275 278 279 280 280 284 283 283 284 282 295 312 299 299 310 311 312 314 317 317 301 274 249 248 250 247 250 253 258 265 268 270 267 265 263 262 261 262 264 265 263 264 267 269 270 269 268 268 269 268 269 271 271 271 270 265 264 269 269 263 257 252 251 252 252 254 255 256 257
259 260 262 264 265 265 263 262 261 259 257 257 259 262 265 266 267 268 270 272 275 278 279 283 286 284 285 282 283 302 306 295 301 308 310 312 314 316 312 295 273 251 246 245 242 249 254 259 265 275 279 276 270 265 263 263 263 264 265 265 265 267 270 269 270 272 270 269 269 273 275 272 266 260 260 266 273 271 268 263 256 254 254 254 254 256 258 258
258 260 262 263 265 266 266 265 263 262 260 258 258 261 265 267 269 269 270 271 273 275 277 281 283 284 284 282 290 308 299 295 303 305 307 308 312 315 306 293 274 255 249 243 239 245 255 260 267 280 285 281 275 271 268 265 266 266 267 269 268 269 269 266 268 270 271 274 276 280 277 270 262 257 263 273 276 275 274 268 259 257 257 256 256 257 258 258
257 259 260 262 263 266 268 267 266 264 263 261 260 261 264 267 269 270 271 271 272 273 275 278 280 282 281 284 298 302 292 296 300 300 302 304 310 311 300 290 274 261 254 244 238 244 255 262 273 284 286 281 275 272 268 266 267 266 264 269 275 278 272 266 270 273 275 278 280 281 275 271 267 264 268 275 277 279 274 267 262 261 260 257 257 257 255 253
257 259 260 260 262 264 267 268 267 266 265 264 263 263 264 266 268 270 272 272 272 272 274 276 279 279 279 287 299 294 291 294 294 294 295 302 309 304 295 287 273 264 257 245 238 244 256 265 275 282 284 280 276 273 271 265 260 261 265 269 278 282 275 274 282 283 282 279 277 277 276 278 276 268 269 275 282 283 273 267 265 264 262 259 256 253 251 247
257 259 260 260 261 263 265 267 267 267 266 266 265 264 264 266 267 270 271 272 272 272 273 275 277 279 280 289 296 291 292 291 291 290 286 301 307 298 290 284 276 268 258 245 240 246 256 265 271 277 279 273 269 272 271 265 260 265 274 276 279 279 279 287 291 289 289 281 278 278 280 286 281 269 270 277 283 282 273 266 262 262 261 256 252 246 244 242
258 259 259 260 261 262 263 265 266 267 267 267 266 265 265 266 268 269 270 271 272 272 273 274 276 279 282 290 294 290 290 287 288 283 282 300 304 293 285 280 278 272 262 250 245 249 256 265 271 275 275 266 260 265 268 272 272 269 271 274 279 281 287 297 298 296 294 288 284 280 286 289 278 269 273 278 282 280 273 265 259 261 259 252 245 238 239 239
260 260 260 260 260 261 263 264 265 266 267 268 268 268 268 268 269 270 270 271 272 273 272 272 276 279 282 289 289 286 282 278 282 282 285 299 299 289 280 276 278 275 269 258 250 252 259 267 272 275 275 264 257 260 262 267 273 276 272 274 284 288 291 294 296 301 299 294 292 288 290 285 274 274 280 281 283 280 273 266 262 261 255 245 237 231 233 235
262 263 262 262 261 262 263 264 265 266 267 269 268 268 269 270 270 270 271 270 271 273 274 275 278 278 281 286 281 281 280 278 282 284 288 295 294 285 274 271 276 278 274 263 257 258 263 269 272 274 271 259 250 247 245 256 278 288 284 285 292 294 293 292 294 300 301 298 294 290 290 282 277 282 284 281 282 281 275 267 264 261 250 239 233 228 228 232
264 264 264 264 264 263 263 264 265 266 267 268 267 268 270 270 271 271 271 271 272 274 276 276 274 272 277 280 275 278 281 281 282 283 286 289 286 277 269 266 271 276 272 263 263 264 264 270 269 268 267 259 249 245 248 268 285 286 286 288 291 294 292 290 293 300 303 299 293 290 291 285 283 284 281 279 283 282 277 272 268 259 243 236 234 232 232 235
263 264 265 265 265 265 264 264 264 264 265 266 267 269 270 270 272 274 274 275 276 277 276 276 274 271 273 275 275 276 277 277 279 279 280 280 278 270 263 260 262 268 266 257 262 268 269 270 267 267 272 272 264 260 266 278 283 284 287 286 287 290 290 292 301 306 307 300 294 297 297 290 287 286 283 284 287 284 280 278 270 252 239 239 240 238 238 240
261 262 264 264 264 265 265 265 264 264 264 264 266 268 270 271 273 276 278 278 277 276 276 277 275 273 272 273 274 275 274 272 272 273 273 272 271 264 257 254 255 259 259 255 261 269 270 269 270 279 288 284 274 270 272 275 277 282 285 286 287 286 290 300 307 308 311 302 299 306 303 295 291 288 288 289 288 285 283 276 264 251 244 248 248 241 240 246
259 260 262 262 263 264 265 266 265 265 264 263 265 268 270 271 272 277 280 280 278 275 275 274 274 274 273 273 272 271 269 267 267 268 268 267 265 260 256 252 252 253 249 249 257 267 273 275 279 285 281 275 269 267 270 272 273 276 278 280 283 287 296 304 307 312 315 308 307 311 307 300 296 292 292 292 288 282 277 265 256 253 252 253 253 247 248 256
256 257 259 261 261 262 263 264 265 265 264 264 265 266 268 271 274 278 281 282 281 276 273 273 274 275 272 267 267 266 264 264 264 264 263 261 258 255 252 249 249 249 245 247 254 264 272 281 286 276 270 269 265 258 259 265 269 274 276 275 279 290 299 299 308 318 314 311 311 311 307 302 300 297 293 292 285 274 262 258 257 256 256 257 256 255 259 261
254 255 257 258 260 261 260 262 264 265 265 264 264 264 267 270 275 278 280 283 283 280 278 275 272 272 269 264 260 260 261 262 261 261 260 257 252 249 248 247 246 245 244 246 253 262 268 274 275 274 274 276 274 262 253 259 269 275 277 275 280 293 297 294 308 317 313 313 313 315 314 305 303 305 296 286 269 258 251 257 259 254 255 257 255 255 257 254
252 253 254 256 257 258 258 259 261 264 266 264 262 264 267 270 274 277 280 284 285 285 285 279 271 268 265 259 256 255 257 259 259 259 258 253 247 244 243 243 243 244 244 245 251 262 268 268 268 270 271 271 271 264 254 260 274 277 278 280 285 295 295 296 309 316 316 317 315 325 327 307 309 312 302 299 268 244 242 255 254 244 244 248 251 252 249 246
252 252 253 253 255 255 256 257 258 261 264 264 265 265 266 269 271 274 280 286 286 286 286 281 269 262 260 254 251 250 252 256 256 253 252 248 241 239 237 237 242 245 245 247 253 262 267 264 263 265 265 265 262 260 257 264 275 277 282 288 290 294 297 302 309 312 313 310 308 315 310 291 309 311 307 321 294 236 229 257 261 246 240 244 246 247 244 243
252 252 252 252 253 254 254 255 256 258 260 262 263 263 263 265 267 272 281 293 289 282 280 274 260 251 252 248 243 237 239 249 248 242 243 240 237 236 234 235 240 243 246 248 250 257 264 265 264 262 257 254 254 259 264 270 273 274 284 294 293 297 299 300 305 305 306 306 306 308 291 269 299 303 306 317 304 243 225 268 269 244 239 244 244 244 245 244
252 251 251 252 252 253 254 254 254 256 257 258 258 259 257 257 261 266 274 295 285 277 271 263 256 251 247 241 235 225 223 233 238 238 239 234 233 233 234 236 238 242 246 247 247 251 259 261 259 260 255 249 250 259 266 270 272 275 283 290 292 296 296 296 300 300 305 310 304 301 296 258 282 294 306 313 299 242 238 277 268 242 237 241 243 244 245 245
252 251 251 251 252 252 252 253 254 255 254 254 254 253 249 249 252 247 232 223 247 256 260 258 253 252 245 235 229 222 223 232 240 242 239 232 229 231 235 236 236 241 245 247 250 250 252 255 256 260 260 255 255 259 264 267 271 276 280 285 290 293 294 296 296 294 300 301 286 286 287 257 285 296 305 319 296 226 252 282 275 260 250 243 244 244 244 245
252 252 250 250 250 251 251 252 253 254 253 253 251 248 243 240 235 220 198 218 235 247 250 251 248 245 241 232 228 227 229 235 239 241 240 233 230 230 233 235 235 239 244 248 252 251 250 253 255 256 258 258 260 260 263 268 271 274 279 284 289 293 294 293 287 288 296 269 272 283 279 234 282 298 305 9 62 348 306 293 284 298 296 268 254 243 241 242
251 251 251 251 251 251 250 249 250 251 252 250 247 244 239 231 222 209 209 230 239 251 246 245 245 241 240 235 232 234 235 237 240 239 239 237 235 231 230 232 232 236 244 248 252 254 252 251 253 255 257 259 261 262 263 265 267 271 277 283 291 299 300 291 277 267 249 259 273 284 281 220 222 279 295 305 301 290 285 281 267 280 295 283 256 230 226 219
246 247 248 248 249 250 248 246 247 248 249 247 244 240 232 223 221 218 207 214 239 250 240 242 245 241 239 237 233 234 235 239 241 239 240 240 239 238 235 235 232 232 242 249 254 259 257 255 256 257 259 259 260 261 261 260 261 263 268 275 289 317 316 289 247 223 234 259 277 285 293 232 239 270 291 298 299 284 266 256 246 252 264 258 242 229 225 217
242 243 244 243 243 245 245 245 242 243 245 242 239 235 223 213 230 226 211 200 218 237 231 235 241 239 237 235 233 233 235 239 240 238 239 238 240 241 239 238 236 234 238 245 255 267 268 266 262 258 257 257 255 255 256 257 258 259 260 261 252 208 341 281 255 291 269 269 291 296 298 259 261 277 296 306 336 327 273 251 244 248 250 247 240 232 234 233
244 241 241 241 240 238 239 239 236 236 239 237 236 229 216 217 239 232 217 215 223 234 237 230 233 235 233 234 236 237 239 240 239 237 237 237 238 240 238 235 235 236 238 244 253 261 268 272 266 255 250 251 253 253 254 255 256 258 259 253 241 228 225 250 254 245 271 295 301 291 270 256 260 273 291 290 295 297 285 260 248 253 253 244 237 231 239 242
247 242 239 238 237 236 236 233 231 230 229 231 231 221 217 225 230 226 221 221 227 237 241 242 246 243 237 240 242 242 240 238 237 237 237 239 240 242 244 240 236 235 234 237 246 248 248 257 263 259 252 255 261 258 254 251 249 252 250 241 239 239 237 253 277 272 286 309 293 254 244 259 270 283 291 290 281 277 277 268 253 251 248 234 227 230 240 245
247 243 239 236 234 234 235 232 230 228 225 226 224 222 229 234 232 230 231 227 231 239 241 243 246 244 245 249 249 247 242 237 236 236 237 242 245 246 248 247 243 239 235 233 234 234 239 253 262 260 258 261 263 258 250 241 240 240 234 231 236 241 240 247 279 292 301 301 277 253 257 270 283 297 302 300 289 289 301 291 259 243 236 228 227 235 244 251
246 242 240 238 233 230 233 231 227 226 225 220 222 231 239 240 237 236 236 230 231 238 241 241 243 245 247 247 247 248 243 236 233 236 239 243 249 250 249 250 248 245 245 242 241 243 248 257 262 260 261 264 262 261 251 240 237 232 227 229 234 238 237 234 265 325 351 280 274 260 269 279 282 291 301 308 314 309 297 293 283 242 230 229 236 246 250 253
248 244 242 241 233 223 226 227 224 225 222 219 228 238 243 244 241 239 237 233 231 236 240 241 242 246 248 245 244 245 240 233 232 235 240 242 246 252 251 253 251 248 249 245 240 243 248 257 265 261 259 262 259 256 250 242 236 233 237 236 224 215 209 204 208 290 267 264 287 281 286 284 267 265 292 306 303 301 290 273 270 253 237 236 242 248 251 253
246 243 242 242 236 224 219 221 222 221 217 220 231 238 241 244 244 241 237 234 231 233 240 244 244 246 249 247 243 242 239 238 238 238 240 240 243 251 251 250 251 248 248 240 236 240 241 247 266 259 255 258 254 246 242 242 238 233 235 233 226 222 207 200 199 207 204 196 284 312 317 284 275 280 301 309 300 295 290 272 257 250 251 249 243 244 250 255
241 243 245 244 238 227 221 219 218 216 216 223 232 237 240 243 244 242 240 237 234 236 241 245 245 245 249 248 243 241 241 245 246 243 241 238 240 253 255 252 252 250 245 235 232 235 235 237 251 255 250 244 245 249 251 252 248 240 235 233 230 225 213 220 226 224 216 159 243 318 305 282 286 297 304 307 313 307 299 284 255 245 255 259 249 253 260 265
237 239 245 246 239 228 222 219 216 215 219 227 233 236 239 242 244 244 241 238 238 240 242 244 245 245 248 250 247 244 242 245 247 245 244 241 243 252 254 255 256 250 242 234 230 231 232 233 239 245 247 245 249 259 264 262 257 251 248 248 247 238 223 221 237 226 219 204 205 159 291 285 292 309 316 304 85 48 26 11 268 238 250 260 258 267 272 277
235 236 243 246 239 228 223 222 221 218 221 229 234 235 237 239 243 244 242 240 239 240 242 243 244 243 245 248 249 248 246 247 248 247 247 249 252 256 255 255 256 248 243 241 245 248 238 235 237 243 250 256 259 261 262 262 259 254 251 249 251 247 234 222 218 223 213 209 223 177 266 280 286 318 32 124 126 77 33 13 345 264 250 254 251 267 282 302
235 237 241 244 241 230 221 221 222 220 224 231 234 235 236 238 241 243 242 241 239 238 240 242 243 243 243 245 246 247 246 247 248 249 251 256 258 259 257 255 254 249 245 241 248 253 236 230 235 246 255 259 260 259 259 260 258 251 250 246 241 243 240 234 233 241 211 191 210 157 221 266 270 268 256 235 225 285 317 325 333 344 305 292 259 279 300 306
235 236 237 237 238 230 221 222 225 225 228 232 234 234 236 237 240 241 242 241 239 238 239 241 243 244 244 244 246 247 246 246 249 251 253 256 257 257 256 255 252 249 248 248 251 252 242 235 233 239 263 267 264 260 253 252 252 250 253 253 248 245 243 238 236 242 237 212 217 185 232 259 265 269 267 266 264 270 284 292 295 300 297 292 288 284 283 282
232 232 232 232 231 226 225 229 231 231 232 234 234 235 235 237 239 240 242 243 242 241 241 242 245 246 245 246 246 247 246 246 249 253 253 252 254 255 255 256 253 249 248 252 256 257 257 250 238 224 218 234 244 249 251 254 255 252 255 259 258 252 243 238 234 229 228 227 222 214 242 260 267 270 270 272 272 272 276 279 282 287 288 284 281 276 271 273
230 227 224 223 223 224 229 231 229 230 233 233 234 235 235 236 239 240 241 242 242 242 240 241 243 245 245 245 245 246 247 247 248 250 252 252 253 254 254 255 255 249 246 250 256 257 256 252 246 241 241 243 249 256 264 271 269 262 265 270 268 262 251 242 231 223 232 236 230 235 250 264 271 270 268 271 274 277 280 283 283 284 282 280 276 270 266 264
231 229 226 222 219 220 225 227 226 229 231 230 231 236 238 238 239 240 240 241 242 240 238 239 241 242 243 243 243 244 246 247 247 248 251 252 252 253 252 252 255 253 247 247 253 254 251 250 251 250 251 255 259 263 267 271 270 269 271 270 266 266 258 241 230 235 245 239 240 251 255 262 270 272 273 274 278 282 284 284 285 284 283 281 277 273 269 264
228 230 233 233 229 225 225 228 229 228 229 229 231 236 239 240 240 240 241 242 241 238 237 238 240 241 242 243 242 243 245 246 246 247 249 249 249 248 246 246 251 255 251 246 249 252 254 255 255 254 256 260 261 263 265 267 270 270 269 268 264 262 259 248 244 251 249 241 250 262 262 262 269 274 276 277 280 284 284 285 287 290 292 291 287 284 280 275
229 230 232 234 234 234 236 241 238 231 228 230 232 235 238 241 243 243 242 240 239 239 237 238 242 243 241 241 240 240 242 242 243 245 246 247 247 246 245 245 249 253 254 252 251 251 253 257 259 258 259 261 260 261 263 264 267 268 267 266 264 260 259 258 258 260 257 255 260 265 266 266 268 271 274 277 280 282 285 289 292 295 296 294 291 289 288 284
231 232 232 232 234 235 239 242 239 233 231 230 232 237 240 243 245 245 242 239 239 240 237 240 247 245 240 239 239 240 243 243 244 247 248 249 249 248 249 251 252 252 252 252 253 252 251 256 261 260 261 264 262 261 263 263 265 268 267 266 265 263 259 257 257 258 256 258 262 263 264 266 266 269 275 279 281 283 287 291 294 294 293 291 292 292 289 284
228 231 232 233 235 235 237 239 237 235 234 230 232 237 240 242 243 243 243 242 244 244 243 249 253 246 240 240 241 244 247 247 248 251 252 254 256 255 257 258 258 255 251 250 254 255 252 253 257 257 260 265 265 265 267 268 269 269 266 262 260 258 257 256 257 257 254 256 260 258 258 263 269 276 281 283 285 286 289 291 292 291 290 291 292 291 287 286
226 229 230 231 235 235 236 239 238 236 237 236 239 242 243 244 245 243 242 245 247 247 247 251 253 246 242 244 246 249 252 251 252 255 256 258 260 261 261 260 260 257 251 249 252 254 253 253 255 255 256 262 267 267 267 271 274 269 266 263 258 256 257 258 259 259 259 259 258 256 260 269 278 283 284 285 287 289 292 294 292 290 290 291 289 289 289 290
Height
3096 3095 3095 3096 3096 3096 3096 3095 3095 3094 3094 3093 3093 3094 3094 3095 3095 3095 3095 3095 3094 3093 3093 3092 3091 3091 3091 3091 3091 3090 3090 3089 3089 3087 3086 3085 3084 3082 3081 3080 3078 3077 3076 3075 3074 3074 3074 3074 3073 3073 3073 3074 3074 3075 3076 3076 3077 3076 3075 3073 3067 3066 3069 3070 3072 3074 3075 3076 3078 3081 3083 3080 3080 3082 3081 3081 3080 3080 3081 3081 3082 3082 3083 3085 3087 3090 3091 3092
3095 3095 3095 3095 3095 3095 3095 3095 3094 3094 3094 3093 3093 3093 3093 3093 3094 3094 3094 3094 3093 3093 3092 3091 3090 3090 3090 3090 3090 3089 3088 3087 3087 3086 3084 3083 3082 3080 3079 3077 3076 3074 3073 3072 3072 3071 3072 3072 3072 3071 3071 3071 3071 3073 3074 3073 3073 3072 3072 3068 3064 3065 3068 3069 3072 3073 3074 3075 3076 3078 3080 3078 3077 3078 3078 3077 3076 3077 3076 3076 3079 3078 3080 3082 3085 3088 3089 3090
3095 3094 3094 3094 3094 3095 3094 3094 3094 3093 3093 3093 3093 3093 3093 3093 3092 3092 3092 3093 3092 3092 3091 3090 3089 3089 3089 3088 3088 3087 3086 3085 3084 3083 3082 3081 3080 3078 3077 3075 3073 3072 3070 3070 3070 3070 3070 3070 3070 3069 3069 3069 3069 3070 3071 3071 3071 3070 3069 3064 3062 3066 3067 3069 3071 3072 3073 3073 3073 3073 3075 3074 3073 3075 3074 3072 3071 3072 3071 3073 3075 3075 3077 3081 3084 3086 3086 3086
3094 3094 3094 3093 3093 3093 3093 3093 3093 3093 3093 3092 3092 3092 3092 3092 3092 3091 3091 3091 3091 3091 3090 3089 3088 3088 3088 3087 3086 3085 3084 3082 3082 3081 3079 3079 3078 3076 3074 3072 3071 3069 3068 3068 3068 3068 3068 3068 3068 3067 3067 3067 3068 3068 3068 3068 3069 3068 3065 3062 3063 3066 3066 3067 3069 3070 3071 3071 3070 3070 3071 3069 3070 3072 3070 3069 3066 3064 3067 3071 3073 3074 3076 3079 3081 3083 3081 3080
3094 3094 3093 3093 3092 3092 3092 3092 3092 3092 3092 3092 3091 3091 3091 3091 3090 3090 3090 3090 3089 3089 3088 3088 3087 3087 3086 3085 3085 3084 3082 3081 3081 3079 3077 3077 3075 3074 3072 3070 3068 3067 3067 3067 3067 3067 3067 3067 3066 3066 3066 3066 3067 3066 3066 3067 3068 3065 3063 3062 3064 3065 3063 3065 3068 3068 3069 3069 3067 3067 3067 3066 3068 3067 3065 3066 3060 3058 3065 3070 3071 3072 3073 3075 3077 3077 3075 3076
3093 3093 3092 3092 3091 3091 3090 3090 3091 3091 3091 3091 3091 3090 3090 3089 3089 3089 3089 3088 3088 3087 3087 3086 3086 3085 3084 3084 3083 3082 3081 3081 3079 3076 3075 3075 3073 3072 3070 3068 3066 3065 3066 3066 3066 3066 3066 3066 3065 3065 3065 3065 3065 3065 3065 3067 3066 3063 3061 3063 3063 3064 3062 3063 3066 3066 3067 3066 3064 3064 3063 3063 3063 3060 3061 3061 3055 3056 3063 3067 3068 3069 3070 3071 3071 3070 3069 3071
3091 3091 3091 3091 3090 3090 3089 3089 3089 3089 3090 3090 3089 3089 3089 3088 3088 3087 3087 3087 3086 3086 3085 3084 3083 3083 3083 3082 3082 3081 3080 3080 3078 3075 3074 3074 3072 3071 3068 3066 3065 3064 3065 3065 3065 3065 3064 3064 3064 3065 3064 3064 3064 3064 3065 3065 3064 3061 3060 3061 3062 3063 3061 3062 3064 3063 3064 3062 3061 3062 3059 3059 3058 3055 3056 3054 3052 3057 3061 3063 3065 3065 3065 3066 3065 3065 3065 3068
3089 3089 3089 3089 3089 3089 3088 3087 3087 3088 3088 3088 3088 3088 3087 3087 3087 3086 3086 3085 3085 3084 3083 3083 3082 3081 3081 3080 3079 3079 3079 3078 3076 3074 3073 3072 3070 3069 3067 3065 3064 3064 3064 3064 3064 3064 3064 3064 3064 3064 3063 3063 3063 3063 3063 3063 3062 3060 3060 3060 3061 3061 3059 3060 3060 3060 3060 3058 3059 3058 3054 3054 3055 3054 3050 3047 3051 3056 3059 3060 3061 3060 3060 3060 3060 3061 3062 3064
3087 3087 3087 3087 3087 3087 3087 3086 3086 3086 3086 3086 3087 3086 3086 3086 3085 3085 3084 3083 3083 3083 3082 3081 3080 3080 3079 3078 3077 3077 3077 3075 3074 3073 3072 3070 3068 3067 3066 3064 3063 3063 3063 3063 3063 3063 3063 3063 3063 3063 3062 3062 3062 3062 3062 3061 3060 3059 3060 3059 3058 3058 3058 3058 3057 3057 3057 3056 3057 3054 3050 3051 3055 3053 3042 3041 3049 3054 3056 3056 3055 3055 3054 3055 3056 3057 3059 3060
3085 3085 3085 3085 3085 3085 3085 3084 3084 3084 3084 3084 3084 3085 3084 3084 3084 3083 3083 3082 3081 3081 3080 3079 3079 3078 3077 3077 3075 3075 3075 3073 3072 3071 3070 3068 3067 3065 3064 3063 3062 3062 3062 3062 3062 3062 3062 3062 3062 3062 3062 3061 3060 3060 3060 3060 3059 3058 3059 3057 3056 3056 3056 3056 3054 3055 3055 3054 3054 3050 3047 3048 3053 3050 3034 3037 3049 3050 3050 3049 3049 3050 3049 3051 3052 3053 3054 3055
3083 3083 3083 3083 3083 3083 3083 3083 3082 3082 3082 3082 3082 3082 3083 3082 3082 3081 3081 3080 3080 3079 3079 3078 3077 3076 3075 3074 3073 3074 3073 3071 3070 3069 3068 3067 3065 3064 3063 3062 3061 3061 3061 3061 3061 3061 3062 3061 3061 3061 3060 3059 3059 3059 3058 3058 3058 3057 3057 3055 3055 3054 3053 3053 3052 3053 3052 3051 3051 3049 3044 3042 3047 3041 3029 3037 3047 3046 3044 3044 3046 3046 3045 3046 3047 3048 3050 3051
3082 3081 3081 3081 3081 3081 3081 3081 3081 3080 3080 3080 3080 3080 3080 3081 3080 3080 3079 3078 3077 3077 3076 3076 3075 3074 3073 3071 3072 3073 3071 3069 3069 3067 3066 3065 3064 3063 3062 3061 3061 3060 3060 3060 3060 3060 3061 3060 3060 3060 3059 3058 3057 3058 3057 3056 3056 3055 3056 3054 3052 3052 3050 3050 3050 3050 3049 3047 3049 3049 3039 3033 3038 3035 3032 3041 3043 3041 3040 3039 3041 3041 3041 3042 3042 3044 3045 3047
3080 3080 3079 3079 3079 3079 3079 3079 3079 3078 3078 3078 3077 3078 3078 3078 3078 3078 3077 3076 3075 3074 3074 3073 3072 3072 3070 3068 3070 3071 3069 3068 3067 3066 3065 3064 3063 3062 3061 3060 3060 3059 3059 3059 3059 3059 3059 3059 3059 3059 3058 3057 3056 3056 3055 3054 3054 3054 3055 3053 3050 3050 3047 3047 3049 3048 3047 3046 3047 3047 3033 3026 3033 3034 3036 3040 3038 3037 3036 3035 3036 3036 3036 3037 3038 3039 3040 3043
3078 3078 3078 3078 3077 3077 3077 3077 3077 3076 3076 3076 3075 3075 3075 3076 3076 3076 3075 3074 3073 3072 3071 3070 3070 3069 3067 3066 3069 3069 3067 3066 3065 3064 3063 3062 3062 3061 3060 3059 3059 3058 3058 3058 3058 3058 3058 3058 3058 3057 3057 3056 3055 3055 3054 3053 3053 3053 3053 3051 3050 3048 3043 3044 3047 3045 3045 3044 3045 3043 3030 3024 3030 3032 3035 3036 3035 3034 3032 3032 3032 3031 3032 3032 3033 3034 3035 3039
3076 3076 3076 3076 3075 3075 3075 3075 3075 3075 3074 3074 3073 3073 3073 3073 3073 3073 3073 3072 3071 3070 3069 3068 3067 3066 3064 3064 3067 3066 3065 3064 3063 3062 3062 3061 3060 3059 3059 3058 3058 3057 3057 3057 3056 3056 3057 3056 3056 3056 3056 3055 3054 3054 3053 3052 3052 3053 3052 3049 3049 3047 3041 3042 3045 3044 3043 3042 3042 3039 3030 3025 3027 3028 3032 3033 3032 3032 3029 3028 3028 3027 3028 3028 3029 3031 3032 3034
3074 3074 3074 3074 3073 3073 3073 3073 3073 3072 3072 3072 3072 3071 3071 3070 3070 3070 3070 3070 3069 3068 3067 3066 3065 3064 3061 3062 3064 3063 3063 3062 3061 3060 3060 3060 3059 3058 3058 3057 3057 3056 3056 3055 3055 3055 3055 3055 3055 3054 3054 3054 3054 3053 3053 3052 3051 3051 3050 3047 3047 3045 3042 3041 3041 3042 3041 3040 3039 3037 3030 3025 3022 3024 3028 3029 3029 3029 3026 3024 3024 3024 3024 3025 3026 3027 3029 3030
3071 3072 3072 3072 3072 3071 3071 3071 3070 3070 3070 3070 3069 3069 3068 3068 3068 3068 3067 3067 3066 3066 3065 3063 3063 3062 3059 3059 3060 3060 3060 3059 3059 3059 3058 3058 3058 3057 3056 3056 3056 3055 3054 3054 3054 3054 3054 3053 3053 3052 3052 3052 3052 3052 3052 3051 3049 3048 3048 3045 3045 3044 3042 3040 3038 3039 3039 3037 3036 3034 3030 3024 3018 3020 3024 3025 3026 3025 3022 3020 3020 3021 3021 3021 3023 3024 3025 3026
3069 3069 3069 3069 3069 3069 3069 3068 3068 3068 3068 3068 3067 3067 3066 3065 3065 3064 3064 3064 3064 3063 3062 3061 3062 3059 3057 3057 3057 3057 3057 3057 3057 3057 3056 3056 3056 3055 3055 3054 3054 3054 3053 3053 3052 3052 3052 3052 3051 3050 3050 3050 3050 3051 3050 3049 3047 3046 3046 3044 3043 3042 3041 3039 3037 3037 3037 3035 3033 3031 3029 3021 3016 3018 3020 3021 3023 3020 3018 3018 3017 3018 3018 3018 3019 3020 3021 3021
3067 3067 3067 3067 3067 3067 3067 3066 3066 3066 3066 3066 3065 3064 3063 3063 3062 3061 3061 3061 3061 3061 3059 3059 3059 3058 3056 3056 3055 3055 3055 3055 3055 3055 3055 3054 3054 3054 3053 3053 3053 3052 3052 3051 3051 3051 3050 3050 3049 3048 3047 3048 3048 3048 3048 3047 3047 3046 3045 3044 3042 3040 3038 3037 3036 3036 3035 3031 3028 3028 3026 3019 3014 3014 3015 3017 3019 3017 3014 3014 3014 3014 3014 3015 3016 3017 3018 3018
3065 3065 3064 3065 3064 3064 3064 3064 3064 3064 3064 3063 3062 3062 3061 3060 3059 3059 3058 3058 3058 3058 3056 3055 3055 3055 3054 3053 3053 3053 3052 3052 3052 3052 3052 3052 3053 3052 3052 3052 3051 3051 3050 3050 3050 3049 3049 3048 3047 3046 3046 3047 3048 3048 3047 3047 3046 3045 3044 3042 3041 3039 3035 3034 3035 3034 3033 3028 3023 3024 3022 3016 3012 3010 3011 3013 3014 3012 3011 3011 3011 3011 3012 3012 3013 3014 3015 3017
3062 3062 3062 3062 3062 3062 3062 3061 3062 3061 3061 3061 3060 3059 3059 3058 3057 3056 3055 3054 3055 3055 3053 3053 3051 3051 3051 3051 3050 3050 3050 3049 3049 3049 3050 3050 3050 3051 3051 3050 3050 3050 3049 3049 3049 3048 3048 3046 3044 3045 3046 3046 3046 3046 3046 3045 3045 3044 3043 3041 3039 3038 3034 3032 3033 3032 3031 3026 3021 3021 3018 3012 3010 3009 3009 3010 3009 3008 3008 3008 3008 3009 3009 3010 3011 3012 3014 3016
3059 3059 3059 3059 3059 3059 3059 3059 3059 3059 3059 3058 3058 3057 3057 3056 3055 3054 3053 3050 3050 3052 3051 3049 3047 3047 3049 3048 3047 3047 3047 3046 3046 3046 3047 3047 3048 3048 3049 3049 3048 3048 3048 3048 3047 3047 3046 3044 3043 3044 3044 3044 3044 3044 3044 3044 3043 3042 3042 3040 3037 3036 3034 3031 3031 3031 3030 3025 3019 3017 3013 3008 3008 3007 3006 3007 3005 3005 3005 3005 3006 3006 3007 3008 3009 3011 3012 3014
3055 3056 3056 3056 3056 3057 3056 3056 3056 3056 3056 3056 3056 3055 3054 3054 3053 3053 3051 3047 3045 3047 3047 3046 3044 3043 3045 3045 3044 3044 3043 3043 3044 3044 3044 3044 3045 3046 3046 3047 3047 3047 3046 3046 3046 3045 3044 3042 3042 3043 3043 3043 3043 3043 3043 3042 3042 3041 3040 3039 3036 3035 3035 3030 3028 3029 3028 3025 3019 3016 3010 3004 3004 3004 3003 3004 3002 3002 3003 3003 3004 3005 3005 3006 3007 3008 3010 3011
3051 3052 3053 3053 3053 3054 3054 3053 3053 3053 3054 3054 3053 3053 3052 3052 3052 3050 3049 3045 3041 3041 3044 3043 3041 3039 3041 3041 3040 3040 3039 3040 3041 3041 3041 3042 3042 3043 3043 3045 3046 3045 3044 3045 3045 3043 3042 3042 3042 3041 3041 3042 3042 3042 3042 3041 3040 3039 3038 3037 3035 3035 3036 3032 3029 3028 3025 3023 3020 3015 3007 2999 3000 3001 2999 3001 3001 3000 3001 3002 3002 3003 3003 3004 3005 3006 3008 3009
3047 3048 3049 3049 3050 3050 3051 3051 3051 3051 3051 3051 3051 3050 3050 3050 3049 3048 3046 3043 3038 3037 3039 3039 3037 3036 3036 3036 3036 3036 3037 3037 3038 3039 3039 3039 3039 3040 3041 3043 3043 3042 3043 3044 3043 3041 3039 3041 3041 3040 3040 3040 3040 3040 3040 3040 3038 3037 3036 3036 3035 3034 3034 3032 3031 3028 3024 3021 3019 3018 3012 2997 2993 2998 2997 2998 2999 2998 3000 3000 3001 3001 3001 3002 3003 3005 3006 3007
3043 3044 3045 3045 3046 3047 3047 3048 3049 3049 3049 3049 3048 3048 3048 3048 3047 3046 3044 3042 3036 3034 3034 3034 3033 3033 3032 3032 3032 3034 3034 3033 3035 3036 3036 3036 3037 3037 3038 3040 3040 3041 3042 3042 3042 3039 3037 3039 3039 3039 3039 3038 3038 3038 3039 3040 3038 3036 3034 3034 3034 3033 3032 3031 3030 3028 3025 3022 3018 3021 3021 3004 2990 2991 2994 2996 2996 2996 2998 2999 2998 2999 2999 3000 3002 3003 3004 3005
3039 3040 3041 3041 3042 3043 3043 3045 3046 3046 3046 3047 3046 3046 3046 3045 3045 3044 3044 3041 3034 3030 3030 3030 3030 3030 3030 3030 3030 3032 3032 3031 3032 3033 3033 3034 3034 3035 3035 3036 3038 3040 3041 3041 3040 3036 3036 3037 3037 3037 3037 3036 3036 3036 3037 3038 3037 3035 3034 3034 3033 3032 3032 3030 3029 3028 3025 3022 3018 3017 3020 3013 2997 2989 2991 2994 2993 2994 2996 2996 2996 2997 2998 2999 3000 3001 3002 3003
3035 3035 3036 3038 3039 3039 3040 3042 3043 3043 3044 3044 3043 3044 3043 3043 3043 3042 3044 3041 3031 3026 3028 3028 3028 3028 3028 3028 3028 3029 3029 3029 3030 3030 3031 3032 3032 3033 3033 3033 3036 3037 3039 3039 3036 3034 3035 3036 3035 3036 3035 3035 3034 3035 3036 3037 3036 3034 3033 3033 3032 3031 3030 3029 3029 3027 3025 3023 3017 3014 3016 3015 3002 2989 2990 2992 2990 2992 2993 2994 2994 2995 2996 2996 2997 2998 2999 3000
3031 3031 3032 3034 3034 3036 3037 3038 3040 3040 3041 3041 3041 3041 3040 3041 3041 3041 3043 3039 3027 3024 3026 3026 3027 3027 3026 3027 3027 3027 3028 3028 3029 3029 3029 3030 3031 3031 3031 3031 3033 3034 3036 3036 3033 3033 3034 3034 3034 3034 3033 3033 3034 3034 3034 3034 3034 3033 3033 3032 3031 3031 3029 3029 3027 3025 3026 3023 3015 3012 3015 3014 3001 2987 2989 2990 2988 2991 2992 2992 2993 2992 2993 2994 2995 2996 2996 2997
3026 3026 3028 3029 3030 3032 3033 3034 3036 3037 3038 3039 3039 3039 3039 3039 3038 3040 3039 3031 3023 3022 3023 3023 3024 3024 3024 3025 3025 3026 3027 3027 3027 3027 3028 3028 3029 3030 3030 3030 3031 3031 3033 3033 3030 3031 3032 3032 3031 3031 3031 3032 3032 3032 3032 3032 3032 3031 3032 3030 3030 3029 3027 3027 3025 3024 3025 3020 3012 3011 3012 3014 3005 2988 2987 2989 2988 2990 2991 2991 2992 2991 2992 2993 2993 2994 2994 2995
3020 3022 3023 3024 3026 3027 3029 3031 3031 3033 3035 3036 3036 3037 3036 3036 3037 3035 3028 3021 3020 3020 3020 3020 3021 3022 3023 3023 3024 3025 3025 3025 3025 3026 3026 3026 3027 3028 3028 3029 3029 3029 3030 3029 3028 3028 3030 3029 3028 3028 3029 3030 3030 3030 3030 3030 3030 3030 3030 3029 3029 3028 3026 3024 3022 3023 3024 3015 3010 3011 3010 3013 3006 2990 2986 2989 2988 2989 2990 2990 2991 2991 2991 2992 2992 2992 2993 2994
3015 3017 3018 3019 3021 3022 3025 3026 3026 3029 3031 3032 3034 3033 3033 3035 3031 3022 3017 3018 3019 3017 3015 3018 3018 3019 3021 3021 3022 3022 3023 3023 3023 3024 3024 3025 3025 3025 3026 3027 3027 3027 3027 3026 3026 3026 3026 3025 3026 3026 3026 3027 3028 3027 3027 3027 3028 3028 3028 3029 3030 3029 3027 3023 3021 3022 3020 3013 3010 3010 3010 3009 3000 2988 2986 2987 2987 2987 2987 2988 2989 2989 2990 2991 2991 2992 2992 2993
3009 3011 3012 3013 3015 3018 3020 3021 3023 3025 3026 3028 3030 3029 3032 3031 3017 3007 3013 3018 3016 3013 3014 3015 3016 3018 3019 3019 3020 3020 3020 3021 3021 3022 3022 3022 3023 3023 3024 3025 3026 3026 3024 3023 3024 3025 3022 3021 3023 3023 3022 3023 3024 3023 3023 3023 3024 3025 3026 3028 3030 3030 3029 3024 3021 3020 3016 3011 3009 3010 3010 3004 2993 2986 2985 2985 2985 2985 2984 2986 2987 2987 2989 2989 2990 2991 2991 2993
3003 3005 3006 3007 3010 3013 3013 3015 3018 3019 3021 3023 3024 3025 3027 3019 3004 3002 3011 3014 3013 3013 3013 3014 3015 3016 3016 3016 3017 3017 3018 3019 3019 3020 3020 3020 3020 3019 3020 3021 3022 3023 3023 3023 3023 3023 3022 3020 3019 3019 3019 3019 3020 3020 3021 3021 3022 3022 3024 3026 3026 3026 3026 3022 3019 3018 3014 3011 3008 3009 3008 2999 2989 2986 2985 2984 2984 2984 2984 2985 2986 2986 2987 2988 2988 2989 2990 2991
2997 2998 2999 3000 3003 3006 3008 3011 3012 3013 3016 3017 3019 3021 3014 3002 2997 3001 3006 3010 3013 3012 3011 3013 3013 3014 3014 3014 3015 3015 3016 3016 3017 3017 3017 3017 3016 3016 3017 3018 3019 3020 3021 3022 3021 3020 3020 3018 3017 3017 3017 3017 3018 3018 3019 3020 3020 3019 3020 3022 3021 3021 3023 3022 3019 3017 3016 3014 3008 3004 3000 2992 2987 2984 2982 2983 2982 2981 2983 2983 2984 2984 2985 2985 2986 2987 2988 2989
2991 2991 2992 2993 2996 3001 3003 3006 3008 3009 3009 3011 3014 3010 2995 2989 2994 2998 3001 3006 3010 3009 3010 3011 3011 3011 3012 3012 3012 3013 3014 3014 3014 3015 3014 3014 3014 3013 3014 3014 3016 3016 3017 3018 3018 3017 3017 3015 3015 3016 3015 3015 3016 3016 3018 3019 3018 3017 3016 3016 3017 3018 3020 3021 3019 3017 3018 3015 3005 2998 2993 2988 2987 2984 2979 2979 2979 2979 2981 2980 2980 2981 2982 2983 2984 2985 2987 2987
2984 2984 2985 2986 2991 2996 2997 3000 3003 3004 3003 3006 3004 2994 2984 2986 2993 2996 2999 3003 3005 3006 3007 3007 3007 3008 3008 3008 3009 3010 3011 3012 3012 3012 3012 3012 3010 3009 3010 3011 3012 3012 3013 3016 3017 3016 3015 3013 3013 3014 3014 3014 3014 3015 3015 3016 3016 3015 3014 3014 3015 3017 3019 3020 3020 3018 3019 3015 3003 2995 2991 2987 2987 2984 2978 2978 2979 2978 2979 2978 2978 2978 2979 2981 2983 2983 2984 2984
2978 2978 2978 2980 2985 2989 2991 2994 2996 2997 2999 2999 2992 2983 2981 2985 2989 2993 2997 2999 3001 3004 3004 3003 3004 3005 3004 3005 3006 3007 3008 3008 3008 3009 3008 3008 3007 3006 3007 3008 3008 3009 3010 3014 3015 3014 3014 3012 3010 3011 3012 3012 3013 3013 3013 3013 3014 3013 3012 3013 3014 3014 3015 3017 3019 3016 3016 3014 3004 2995 2990 2984 2981 2980 2978 2978 2979 2977 2977 2977 2977 2978 2978 2980 2981 2981 2982 2981
2973 2973 2971 2973 2978 2980 2983 2986 2988 2991 2993 2988 2980 2977 2978 2980 2984 2990 2993 2996 2999 3000 2999 2999 3001 3002 3001 3001 3003 3004 3005 3004 3005 3005 3005 3005 3004 3003 3005 3006 3006 3007 3007 3010 3011 3011 3012 3012 3008 3007 3009 3009 3009 3009 3009 3009 3010 3011 3011 3012 3012 3012 3012 3012 3013 3012 3011 3012 3006 2998 2990 2978 2972 2975 2976 2977 2977 2976 2975 2975 2976 2977 2977 2978 2979 2979 2980 2980
2968 2967 2965 2967 2971 2973 2975 2978 2981 2983 2981 2975 2971 2972 2973 2975 2979 2985 2989 2993 2995 2996 2995 2996 2998 2998 2997 2998 3000 3001 3002 3001 3001 3002 3001 3001 3001 3001 3003 3004 3004 3005 3005 3006 3007 3008 3010 3010 3007 3005 3006 3007 3006 3005 3006 3006 3007 3008 3008 3009 3009 3010 3010 3009 3008 3007 3007 3009 3009 3005 2993 2972 2966 2973 2975 2974 2975 2974 2974 2973 2974 2975 2976 2977 2978 2978 2979 2980
2963 2960 2958 2961 2965 2966 2968 2968 2969 2972 2970 2968 2967 2967 2969 2971 2975 2979 2985 2989 2990 2991 2992 2992 2993 2994 2994 2995 2996 2997 2999 2997 2997 2998 2997 2997 2999 3000 3001 3002 3002 3003 3003 3003 3004 3005 3006 3005 3004 3003 3002 3002 3002 3003 3004 3004 3005 3005 3004 3006 3006 3007 3008 3008 3006 3003 3003 3005 3006 3007 2996 2971 2964 2972 2973 2972 2974 2973 2973 2973 2972 2974 2976 2977 2978 2978 2979 2979
2957 2953 2953 2955 2958 2960 2961 2959 2961 2964 2964 2961 2959 2960 2964 2967 2970 2974 2979 2983 2985 2987 2988 2987 2988 2989 2990 2991 2992 2994 2995 2993 2993 2993 2992 2993 2996 2998 3000 3000 3001 3001 3001 3001 3001 3002 3003 3002 3002 3001 2999 2999 3001 3002 3002 3002 3002 3002 3001 3002 3003 3004 3004 3003 3002 2999 3000 3002 3001 3006 3000 2973 2964 2973 2972 2971 2973 2971 2972 2974 2974 2975 2976 2977 2978 2978 2979 2979
2949 2949 2949 2951 2953 2955 2955 2954 2956 2957 2954 2952 2954 2957 2961 2964 2966 2969 2973 2976 2979 2981 2982 2982 2982 2984 2985 2987 2989 2990 2990 2990 2988 2988 2989 2990 2992 2996 2998 2998 2998 2999 2999 2999 2999 3001 3001 2999 2999 2998 2997 2997 2998 2999 2999 2999 2998 2998 2997 2998 2998 2999 2998 2999 3000 2997 2998 2999 2997 3004 2998 2970 2961 2971 2972 2971 2973 2970 2971 2974 2975 2977 2977 2978 2978 2978 2979 2979
2944 2945 2944 2945 2947 2948 2947 2946 2947 2947 2947 2949 2952 2954 2957 2959 2960 2963 2966 2969 2972 2975 2976 2977 2978 2979 2981 2983 2985 2985 2986 2986 2984 2984 2986 2986 2987 2992 2994 2994 2995 2996 2996 2996 2997 2998 2997 2995 2996 2997 2997 2996 2995 2995 2995 2993 2993 2992 2993 2994 2994 2995 2996 2997 2998 2997 2997 2994 2993 2998 2988 2962 2956 2967 2968 2969 2972 2970 2972 2974 2974 2976 2978 2979 2979 2979 2979 2978
2940 2940 2938 2940 2940 2939 2939 2940 2941 2942 2944 2947 2947 2949 2953 2954 2954 2956 2960 2964 2967 2970 2972 2973 2974 2975 2977 2980 2980 2980 2981 2981 2981 2981 2981 2981 2983 2987 2990 2991 2991 2992 2994 2995 2994 2994 2993 2991 2990 2992 2993 2991 2990 2990 2989 2987 2988 2988 2988 2990 2990 2991 2992 2991 2993 2994 2992 2989 2989 2988 2975 2955 2954 2963 2964 2965 2968 2968 2971 2972 2972 2974 2975 2976 2977 2977 2978 2977
2934 2932 2932 2934 2934 2932 2933 2936 2938 2938 2940 2942 2942 2943 2946 2947 2948 2951 2955 2958 2961 2964 2966 2968 2969 2971 2973 2974 2974 2974 2975 2976 2978 2977 2975 2976 2979 2982 2986 2987 2988 2989 2991 2992 2991 2991 2989 2985 2984 2985 2984 2983 2984 2985 2986 2985 2984 2984 2985 2987 2986 2986 2987 2987 2987 2986 2985 2986 2982 2976 2968 2957 2951 2955 2959 2962 2964 2965 2967 2968 2969 2970 2971 2972 2973 2973 2974 2974
2926 2923 2922 2926 2927 2926 2927 2929 2930 2931 2933 2936 2936 2937 2939 2941 2944 2947 2949 2950 2953 2958 2961 2962 2965 2966 2965 2966 2968 2969 2970 2972 2973 2971 2969 2971 2975 2978 2982 2984 2985 2986 2987 2988 2988 2987 2984 2980 2980 2980 2978 2979 2981 2983 2985 2983 2980 2979 2980 2981 2982 2983 2983 2981 2979 2978 2982 2982 2971 2965 2970 2964 2945 2943 2954 2959 2960 2963 2964 2963 2965 2966 2966 2967 2968 2968 2968 2969
2919 2916 2917 2920 2919 2916 2918 2921 2922 2924 2927 2929 2931 2933 2935 2937 2939 2940 2941 2944 2947 2952 2954 2955 2956 2956 2957 2961 2963 2964 2966 2967 2966 2964 2964 2966 2971 2974 2977 2980 2983 2983 2984 2985 2984 2983 2980 2975 2974 2976 2975 2976 2979 2980 2981 2980 2976 2974 2974 2974 2976 2978 2976 2974 2972 2975 2978 2972 2960 2960 2968 2960 2941 2940 2949 2953 2956 2958 2959 2959 2959 2960 2961 2961 2961 2961 2961 2962
2914 2912 2913 2915 2912 2910 2914 2919 2921 2921 2922 2924 2926 2928 2930 2930 2930 2932 2936 2940 2940 2942 2947 2947 2945 2947 2953 2957 2959 2960 2960 2959 2957 2957 2959 2963 2966 2970 2973 2976 2978 2980 2981 2980 2979 2980 2977 2971 2971 2973 2971 2972 2975 2977 2978 2977 2973 2969 2967 2967 2970 2970 2970 2969 2967 2971 2972 2962 2955 2961 2962 2948 2940 2942 2945 2948 2953 2954 2953 2955 2955 2955 2955 2954 2954 2954 2955 2955
2909 2908 2910 2909 2906 2907 2912 2916 2917 2916 2918 2920 2919 2921 2924 2923 2924 2927 2931 2933 2932 2934 2939 2938 2936 2941 2948 2953 2955 2953 2950 2950 2952 2954 2958 2961 2963 2966 2969 2970 2973 2976 2976 2975 2974 2975 2973 2968 2968 2970 2969 2967 2970 2973 2974 2973 2970 2963 2958 2961 2963 2962 2963 2963 2961 2965 2964 2955 2953 2961 2954 2938 2937 2945 2945 2946 2950 2950 2950 2951 2950 2950 2950 2948 2948 2949 2949 2949
2903 2904 2906 2905 2901 2903 2907 2909 2911 2911 2912 2913 2912 2914 2917 2916 2919 2924 2925 2926 2927 2929 2930 2930 2932 2939 2945 2948 2948 2942 2940 2948 2953 2954 2957 2960 2961 2964 2965 2966 2969 2971 2970 2970 2970 2969 2969 2966 2964 2968 2967 2961 2964 2970 2969 2969 2968 2955 2945 2950 2956 2954 2953 2953 2953 2955 2954 2950 2953 2954 2942 2930 2935 2947 2946 2944 2946 2947 2946 2947 2946 2944 2945 2944 2943 2944 2944 2944
2897 2898 2901 2900 2897 2898 2901 2903 2905 2904 2904 2906 2908 2909 2911 2913 2918 2922 2921 2920 2922 2924 2926 2928 2932 2937 2939 2938 2935 2933 2938 2948 2952 2954 2957 2958 2958 2960 2961 2962 2964 2965 2965 2966 2965 2965 2965 2963 2962 2965 2963 2958 2962 2965 2964 2968 2965 2943 2928 2937 2946 2946 2945 2945 2944 2944 2946 2948 2947 2940 2929 2928 2938 2946 2943 2939 2941 2942 2941 2942 2941 2939 2939 2940 2939 2939 2940 2940